Previsão horária em Aligarh

Hoje, 22 Junho, Terça-feira

Tempo Temperatura Precipitação Vento Pressão Humidade
00:00 +35°C° 0 mm 2 m/s 735 mmHg 50%
01:00 +33°C° 0 mm 1 m/s 734 mmHg 52%
02:00 +33°C° 0 mm 1 m/s 734 mmHg 55%
03:00 +33°C° 0 mm 1 m/s 734 mmHg 55%
04:00 +33°C° 0 mm 1 m/s 734 mmHg 56%
05:00 +32°C° 0 mm 1 m/s 735 mmHg 56%
06:00 +34°C° 0 mm 1 m/s 735 mmHg 50%
07:00 +36°C° 0 mm 2 m/s 735 mmHg 45%
08:00 +37°C° 0 mm 2 m/s 735 mmHg 39%
09:00 +39°C° 0 mm 2 m/s 735 mmHg 35%
10:00 +42°C° 0 mm 3 m/s 735 mmHg 30%
11:00 +42°C° 0 mm 3 m/s 735 mmHg 28%
12:00 +43°C° 0 mm 3 m/s 735 mmHg 25%
13:00 +44°C° 0 mm 3 m/s 734 mmHg 23%
14:00 +45°C° 0 mm 4 m/s 734 mmHg 20%
15:00 +45°C° 0 mm 4 m/s 733 mmHg 19%
16:00 +44°C° 0 mm 4 m/s 733 mmHg 18%
17:00 +44°C° 0 mm 4 m/s 733 mmHg 18%
18:00 +43°C° 0 mm 3 m/s 733 mmHg 20%
19:00 +41°C° 0 mm 2 m/s 733 mmHg 22%
20:00 +39°C° 0 mm 1 m/s 733 mmHg 25%
21:00 +39°C° 0 mm 1 m/s 734 mmHg 26%
22:00 +37°C° 0 mm 1 m/s 734 mmHg 27%
23:00 +37°C° 0 mm 1 m/s 734 mmHg 29%

Amanhã, 23 Junho, Quarta-feira

Tempo Temperatura Precipitação Vento Pressão Humidade
00:00 +36°C° 0 mm 1 m/s 734 mmHg 30%
01:00 +36°C° 0 mm 1 m/s 734 mmHg 31%
02:00 +35°C° 0 mm 1 m/s 734 mmHg 32%
03:00 +35°C° 0 mm 1 m/s 734 mmHg 34%
04:00 +34°C° 0 mm 1 m/s 734 mmHg 36%
05:00 +34°C° 0 mm 1 m/s 734 mmHg 38%
06:00 +35°C° 0 mm 1 m/s 735 mmHg 35%
07:00 +38°C° 0 mm 2 m/s 735 mmHg 32%
08:00 +39°C° 0 mm 2 m/s 735 mmHg 30%
09:00 +41°C° 0 mm 1 m/s 735 mmHg 26%
10:00 +43°C° 0 mm 1 m/s 735 mmHg 23%
11:00 +41°C° 0 mm 0 m/s 735 mmHg 19%
12:00 +45°C° 0 mm 1 m/s 735 mmHg 18%
13:00 +46°C° 0 mm 2 m/s 734 mmHg 16%
14:00 +47°C° 0 mm 3 m/s 733 mmHg 15%
15:00 +47°C° 0 mm 3 m/s 733 mmHg 15%
16:00 +46°C° 0 mm 3 m/s 733 mmHg 15%
17:00 +46°C° 0 mm 3 m/s 732 mmHg 15%
18:00 +45°C° 0 mm 2 m/s 733 mmHg 17%
19:00 +43°C° 0 mm 2 m/s 733 mmHg 18%
20:00 +42°C° 0 mm 2 m/s 733 mmHg 20%
21:00 +41°C° 0 mm 2 m/s 733 mmHg 23%
22:00 +40°C° 0 mm 2 m/s 734 mmHg 25%
23:00 +39°C° 0 mm 2 m/s 734 mmHg 28%

Depois de amanhã, 24 Junho, Quinta-feira

Tempo Temperatura Precipitação Vento Pressão Humidade
00:00 +38°C° 0 mm 3 m/s 734 mmHg 33%
01:00 +38°C° 0 mm 3 m/s 733 mmHg 39%
02:00 +37°C° 0 mm 4 m/s 733 mmHg 44%
03:00 +36°C° 0 mm 3 m/s 733 mmHg 47%
04:00 +36°C° 0 mm 3 m/s 733 mmHg 50%
05:00 +35°C° 0 mm 2 m/s 733 mmHg 52%
06:00 +37°C° 0 mm 2 m/s 733 mmHg 47%
07:00 +38°C° 0 mm 3 m/s 734 mmHg 42%
08:00 +39°C° 0 mm 3 m/s 734 mmHg 38%
09:00 +42°C° 0 mm 3 m/s 734 mmHg 31%
10:00 +44°C° 0 mm 4 m/s 734 mmHg 24%
11:00 +47°C° 0 mm 4 m/s 734 mmHg 17%
12:00 +48°C° 0 mm 4 m/s 733 mmHg 16%
13:00 +49°C° 0 mm 4 m/s 733 mmHg 15%
14:00 +49°C° 0 mm 4 m/s 732 mmHg 13%
15:00 +48°C° 0 mm 4 m/s 732 mmHg 14%
16:00 +47°C° 0 mm 4 m/s 731 mmHg 15%
17:00 +45°C° 0 mm 4 m/s 731 mmHg 17%
18:00 +45°C° 0 mm 3 m/s 731 mmHg 17%
19:00 +44°C° 0 mm 3 m/s 731 mmHg 18%
20:00 +42°C° 0 mm 2 m/s 732 mmHg 19%
21:00 +43°C° 0 mm 3 m/s 732 mmHg 20%
22:00 +42°C° 0 mm 3 m/s 732 mmHg 21%
23:00 +42°C° 0 mm 4 m/s 732 mmHg 23%

25 Junho, Sexta-feira

Tempo Temperatura Precipitação Vento Pressão Humidade
00:00 +41°C° 0 mm 4 m/s 732 mmHg 25%
01:00 +40°C° 0 mm 5 m/s 733 mmHg 27%
02:00 +40°C° 0 mm 5 m/s 733 mmHg 30%
03:00 +38°C° 0 mm 4 m/s 733 mmHg 32%
04:00 +37°C° 0 mm 4 m/s 733 mmHg 34%
05:00 +37°C° 0 mm 3 m/s 733 mmHg 36%
06:00 +39°C° 0 mm 5 m/s 733 mmHg 35%
07:00 +40°C° 0 mm 6 m/s 733 mmHg 34%
08:00 +41°C° 0 mm 8 m/s 734 mmHg 32%
09:00 +43°C° 0 mm 7 m/s 734 mmHg 29%
10:00 +45°C° 0 mm 7 m/s 733 mmHg 26%
11:00 +46°C° 0 mm 6 m/s 733 mmHg 23%
12:00 +47°C° 0 mm 6 m/s 733 mmHg 22%
13:00 +47°C° 0 mm 6 m/s 732 mmHg 20%
14:00 +48°C° 0 mm 5 m/s 731 mmHg 18%
15:00 +47°C° 0 mm 5 m/s 731 mmHg 19%
16:00 +46°C° 0 mm 6 m/s 731 mmHg 20%
17:00 +46°C° 0 mm 6 m/s 731 mmHg 21%
18:00 +45°C° 0 mm 5 m/s 731 mmHg 22%
19:00 +42°C° 0 mm 3 m/s 731 mmHg 24%
20:00 +40°C° 0 mm 2 m/s 732 mmHg 25%
21:00 +40°C° 0 mm 2 m/s 732 mmHg 26%
22:00 +40°C° 0 mm 3 m/s 732 mmHg 28%
23:00 +39°C° 0 mm 3 m/s 732 mmHg 29%

26 Junho, Sábado

Tempo Temperatura Precipitação Vento Pressão Humidade
00:00 +39°C° 0 mm 3 m/s 732 mmHg 29%
01:00 +38°C° 0 mm 2 m/s 732 mmHg 30%
02:00 +38°C° 0 mm 2 m/s 732 mmHg 31%
03:00 +37°C° 0 mm 2 m/s 732 mmHg 32%
04:00 +37°C° 0 mm 2 m/s 733 mmHg 34%
05:00 +36°C° 0 mm 2 m/s 733 mmHg 35%
06:00 +37°C° 0 mm 3 m/s 734 mmHg 33%
07:00 +40°C° 0 mm 4 m/s 734 mmHg 30%
08:00 +41°C° 0 mm 5 m/s 734 mmHg 28%
09:00 +42°C° 0 mm 4 m/s 734 mmHg 26%
10:00 +44°C° 0 mm 4 m/s 734 mmHg 25%
11:00 +45°C° 0 mm 4 m/s 734 mmHg 23%
12:00 +47°C° 0 mm 4 m/s 734 mmHg 21%
13:00 +48°C° 0 mm 4 m/s 733 mmHg 19%
14:00 +47°C° 0 mm 3 m/s 732 mmHg 17%
15:00 +47°C° 0 mm 3 m/s 732 mmHg 17%
16:00 +46°C° 0 mm 3 m/s 732 mmHg 18%
17:00 +45°C° 0 mm 2 m/s 732 mmHg 18%
18:00 +43°C° 0 mm 2 m/s 732 mmHg 20%
19:00 +42°C° 0 mm 2 m/s 732 mmHg 23%
20:00 +41°C° 0 mm 2 m/s 733 mmHg 25%
21:00 +42°C° 0 mm 3 m/s 733 mmHg 26%
22:00 +40°C° 0 mm 3 m/s 733 mmHg 27%
23:00 +41°C° 0 mm 4 m/s 733 mmHg 28%

27 Junho, Domingo

Tempo Temperatura Precipitação Vento Pressão Humidade
00:00 +41°C° 0 mm 4 m/s 733 mmHg 28%
01:00 +40°C° 0 mm 4 m/s 733 mmHg 29%
02:00 +39°C° 0 mm 3 m/s 733 mmHg 30%
03:00 +39°C° 0 mm 3 m/s 733 mmHg 31%
04:00 +38°C° 0 mm 3 m/s 734 mmHg 32%
05:00 +38°C° 0 mm 3 m/s 734 mmHg 33%
06:00 +39°C° 0 mm 3 m/s 734 mmHg 31%
07:00 +40°C° 0 mm 3 m/s 735 mmHg 30%
08:00 +40°C° 0 mm 3 m/s 735 mmHg 28%
09:00 +43°C° 0 mm 3 m/s 735 mmHg 25%
10:00 +44°C° 0 mm 4 m/s 735 mmHg 23%
11:00 +47°C° 0 mm 4 m/s 735 mmHg 20%
12:00 +48°C° 0 mm 4 m/s 735 mmHg 19%
13:00 +48°C° 0 mm 4 m/s 734 mmHg 18%
14:00 +49°C° 0 mm 4 m/s 733 mmHg 17%
15:00 +49°C° 0 mm 4 m/s 733 mmHg 17%
16:00 +48°C° 0 mm 4 m/s 733 mmHg 16%
17:00 +47°C° 0 mm 3 m/s 733 mmHg 16%
18:00 +46°C° 0 mm 3 m/s 733 mmHg 18%
19:00 +45°C° 0 mm 2 m/s 733 mmHg 19%
20:00 +42°C° 0 mm 1 m/s 733 mmHg 21%
21:00 +42°C° 0 mm 1 m/s 733 mmHg 22%
22:00 +41°C° 0 mm 1 m/s 734 mmHg 23%
23:00 +41°C° 0 mm 1 m/s 734 mmHg 24%
Mostrar mais